{"data":{"norad_id":27811,"intl_designator":"2003-020A","name":"HELLAS-SAT 2","alt_names":[],"object_type":"PAYLOAD","status":"ACTIVE","operator":null,"country":"GREC","launch_date":"2003-05-13","launch_site_code":"AFETR","launch_vehicle":null,"mission":null,"orbit_class":"UNKNOWN","rcs_meters":15.8489,"size_class":null,"mass_kg":null,"dimensions":null,"purposes":["comms"],"wikipedia_slug":null,"has_3d_model":false,"image_url":null,"decayed_at":null,"tle_current":{"epoch":"2026-05-25T01:58:40.152288Z","epoch_age_seconds":61840,"freshness":"FRESH","line1":"1 27811U 03020A   26145.08240917 -.00000086  00000+0  00000+0 0  9996","line2":"2 27811   7.3001  68.1578 0003048 335.6025 218.5727  1.00271749 42612","mean_motion":1.00271749,"eccentricity":0.0003048,"inclination_deg":7.3001,"raan_deg":68.1578,"arg_perigee_deg":335.6025,"mean_anomaly_deg":218.5727,"bstar":0,"rev_number":4261,"period_min":1436.0974196231,"perigee_km":35773.753239923,"apogee_km":35799.456866678,"semimajor_km":42164.742053301,"source":"CELESTRAK","updated_at":"2026-05-25T13:38:13.815592Z"}}}